TimePST,TemperatureF,Dew PointF,Humidity,Sea Level PressureIn,VisibilityMPH,Wind Direction,Wind SpeedMPH,Gust SpeedMPH,PrecipitationIn,Events,Conditions,WindDirDegrees,DateUTC
12:26 AM,26.6,24.8,93,29.78,0.2,Variable,6.9,-,0.00,Fog-Snow,Light Snow,0,2013-11-15 08:26:00
12:33 AM,26.6,24.8,93,29.78,1.0,Variable,4.6,-,0.00,Snow,Light Snow,0,2013-11-15 08:33:00
12:53 AM,26.1,25.0,96,29.86,0.8,Variable,5.8,-,0.01,Snow,Light Snow,0,2013-11-15 08:53:00
12:59 AM,26.6,24.8,93,29.77,1.8,Variable,4.6,-,0.00,Snow,Light Snow,0,2013-11-15 08:59:00
1:02 AM,26.6,24.8,93,29.77,3.0,Variable,3.5,-,0.00,Snow,Light Snow,0,2013-11-15 09:02:00
1:44 AM,26.6,24.8,93,29.76,2.0,Variable,4.6,-,0.00,,Overcast,0,2013-11-15 09:44:00
1:53 AM,26.1,25.0,96,29.83,4.0,Calm,Calm,-,0.00,,Overcast,0,2013-11-15 09:53:00
2:03 AM,26.6,24.8,93,29.76,1.8,Calm,Calm,-,N/A,,Overcast,0,2013-11-15 10:03:00
2:18 AM,26.6,24.8,93,29.75,1.0,Variable,3.5,-,N/A,,Mist,0,2013-11-15 10:18:00
2:26 AM,26.6,24.8,93,29.75,0.5,Variable,4.6,-,N/A,Fog,Light Freezing Fog,0,2013-11-15 10:26:00
2:33 AM,26.6,24.8,93,29.75,0.8,Variable,3.5,-,0.00,Snow,Light Snow,0,2013-11-15 10:33:00
2:53 AM,26.1,25.0,96,29.83,0.2,Variable,3.5,-,0.00,Fog-Snow,Light Snow,0,2013-11-15 10:53:00
3:01 AM,26.6,24.8,93,29.74,0.5,Variable,4.6,-,0.00,Fog-Snow,Light Snow,0,2013-11-15 11:01:00
3:27 AM,26.6,24.8,93,29.73,0.2,Calm,Calm,-,0.00,Fog-Snow,Light Snow,0,2013-11-15 11:27:00
3:41 AM,26.6,24.8,93,29.72,0.5,Variable,5.8,-,0.00,Fog-Snow,Light Snow,0,2013-11-15 11:41:00
3:53 AM,27.0,24.1,89,29.80,0.5,West,8.1,-,0.00,Fog,Light Freezing Fog,260,2013-11-15 11:53:00
4:53 AM,27.0,25.0,92,29.79,0.8,Calm,Calm,-,0.00,,Mist,0,2013-11-15 12:53:00
5:15 AM,26.6,24.8,93,29.70,1.0,Variable,4.6,-,N/A,,Mist,0,2013-11-15 13:15:00
5:25 AM,26.6,24.8,93,29.69,2.0,WSW,9.2,-,N/A,,Overcast,240,2013-11-15 13:25:00
5:32 AM,26.6,24.8,93,29.69,3.0,WSW,9.2,20.7,0.00,,Overcast,240,2013-11-15 13:32:00
5:41 AM,26.6,24.8,93,29.69,1.8,Variable,5.8,-,0.00,Snow,Light Snow,0,2013-11-15 13:41:00
5:53 AM,27.0,24.1,89,29.77,3.0,Variable,6.9,-,0.00,Snow,Light Snow,0,2013-11-15 13:53:00
6:11 AM,26.6,24.8,93,29.68,1.8,Variable,5.8,-,0.00,Snow,Light Snow,0,2013-11-15 14:11:00
6:34 AM,26.6,23.0,86,29.68,3.0,West,10.4,21.9,0.00,Snow,Light Snow,260,2013-11-15 14:34:00
6:53 AM,26.1,23.0,88,29.75,4.0,Variable,5.8,-,0.00,Snow,Light Snow,0,2013-11-15 14:53:00
7:03 AM,26.6,23.0,86,29.66,2.0,WSW,9.2,18.4,0.01,Snow,Light Snow,240,2013-11-15 15:03:00
7:14 AM,26.6,23.0,86,29.66,3.0,WSW,10.4,18.4,0.01,Snow,Light Snow,250,2013-11-15 15:14:00
7:19 AM,26.6,23.0,86,29.67,1.8,West,8.1,21.9,0.01,Snow,Light Snow,260,2013-11-15 15:19:00
7:27 AM,26.6,24.8,93,29.67,0.8,Variable,4.6,-,0.01,Snow,Light Snow,0,2013-11-15 15:27:00
7:40 AM,26.6,23.0,86,29.66,1.5,Variable,5.8,18.4,0.01,Snow,Light Snow,0,2013-11-15 15:40:00
7:53 AM,26.1,23.0,88,29.74,1.2,Variable,6.9,20.7,0.01,Snow,Light Snow,0,2013-11-15 15:53:00
7:56 AM,26.6,23.0,86,29.65,2.0,WSW,10.4,21.9,0.00,Snow,Light Snow,240,2013-11-15 15:56:00
8:04 AM,26.6,23.0,86,29.65,3.0,Variable,6.9,23.0,0.00,Snow,Light Snow,0,2013-11-15 16:04:00
8:53 AM,25.0,21.9,88,29.72,7.0,WSW,10.4,23.0,0.00,,Overcast,250,2013-11-15 16:53:00
9:53 AM,25.0,21.9,88,29.72,8.0,West,15.0,25.3,0.00,,Overcast,260,2013-11-15 17:53:00
10:12 AM,24.8,21.2,86,29.61,7.0,WSW,9.2,28.8,0.00,,Overcast,240,2013-11-15 18:12:00
10:32 AM,24.8,21.2,86,29.59,1.8,SW,13.8,27.6,0.00,Snow,Light Snow,230,2013-11-15 18:32:00
10:48 AM,24.8,21.2,86,29.58,3.0,WSW,11.5,25.3,0.00,Snow,Light Snow,240,2013-11-15 18:48:00
10:53 AM,25.0,21.9,88,29.67,3.0,SW,9.2,20.7,0.00,Snow,Light Snow,230,2013-11-15 18:53:00
10:59 AM,24.8,21.2,86,29.58,1.8,SW,15.0,20.7,0.00,Snow,Light Snow,230,2013-11-15 18:59:00
11:02 AM,24.8,21.2,86,29.58,0.8,SW,11.5,21.9,0.00,Snow,Light Snow,230,2013-11-15 19:02:00
11:07 AM,24.8,21.2,86,29.57,0.2,WSW,10.4,21.9,0.00,Fog-Snow,Light Snow,240,2013-11-15 19:07:00
11:53 AM,25.0,21.9,88,29.65,0.2,SW,11.5,31.1,0.01,Fog-Snow,Light Snow,230,2013-11-15 19:53:00
12:02 PM,24.8,21.2,86,29.54,0.5,WSW,8.1,23.0,0.00,Fog-Snow,Light Snow,250,2013-11-15 20:02:00
12:10 PM,24.8,21.2,86,29.52,0.2,WSW,15.0,25.3,0.01,Fog-Snow,Snow,240,2013-11-15 20:10:00
12:38 PM,24.8,21.2,86,29.51,0.8,WSW,11.5,26.5,0.03,Snow,Light Snow,240,2013-11-15 20:38:00
12:53 PM,25.0,21.9,88,29.60,0.8,WSW,15.0,36.8,0.03,Snow,Light Snow,240,2013-11-15 20:53:00
1:18 PM,24.8,21.2,86,29.50,1.5,WSW,12.7,27.6,0.02,Snow,Light Snow,240,2013-11-15 21:18:00
1:30 PM,24.8,21.2,86,29.49,1.2,SW,11.5,25.3,0.02,Snow,Light Snow,220,2013-11-15 21:30:00
1:48 PM,24.8,21.2,86,29.48,0.8,WSW,9.2,24.2,0.03,Snow,Light Snow,240,2013-11-15 21:48:00
1:53 PM,25.0,21.9,88,29.57,0.8,SW,10.4,23.0,0.03,Snow,Light Snow,230,2013-11-15 21:53:00
2:27 PM,24.8,21.2,86,29.47,1.0,WSW,9.2,25.3,0.01,Snow,Light Snow,240,2013-11-15 22:27:00
2:34 PM,24.8,21.2,86,29.47,1.5,West,9.2,20.7,0.01,Snow,Light Snow,270,2013-11-15 22:34:00
2:43 PM,24.8,21.2,86,29.48,1.2,Variable,5.8,21.9,0.01,Snow,Light Snow,0,2013-11-15 22:43:00
2:53 PM,24.1,21.0,88,29.57,1.0,WSW,9.2,24.2,0.01,Snow,Light Snow,240,2013-11-15 22:53:00
2:59 PM,24.8,21.2,86,29.47,0.8,WSW,9.2,21.9,0.00,Snow,Light Snow,250,2013-11-15 22:59:00
3:11 PM,24.8,21.2,86,29.46,0.8,Variable,6.9,17.3,0.01,Snow,Light Snow,0,2013-11-15 23:11:00
3:24 PM,24.8,21.2,86,29.47,0.2,WSW,12.7,25.3,0.02,Fog-Snow,Snow,240,2013-11-15 23:24:00
3:53 PM,24.1,21.0,88,29.53,0.2,Variable,6.9,17.3,0.04,Fog-Snow,Snow,0,2013-11-15 23:53:00
4:05 PM,24.8,21.2,86,29.44,0.5,WSW,8.1,18.4,0.00,Fog-Snow,Snow,240,2013-11-16 00:05:00
4:53 PM,25.0,21.9,88,29.51,0.5,Variable,6.9,16.1,0.03,Fog-Snow,Snow,0,2013-11-16 00:53:00
5:53 PM,24.1,21.0,88,29.48,0.8,WSW,12.7,24.2,0.04,Snow,Light Snow,250,2013-11-16 01:53:00
6:21 PM,24.8,21.2,86,29.39,1.0,WSW,8.1,19.6,0.01,Snow,Light Snow,250,2013-11-16 02:21:00
6:28 PM,24.8,21.2,86,29.38,1.0,WSW,11.5,24.2,0.02,Snow,Light Snow,250,2013-11-16 02:28:00
6:40 PM,24.8,21.2,86,29.38,0.8,WSW,9.2,19.6,0.02,Snow,Light Snow,240,2013-11-16 02:40:00
6:53 PM,24.1,21.0,88,29.47,0.8,WSW,8.1,19.6,0.03,Snow,Light Snow,240,2013-11-16 02:53:00
7:53 PM,24.1,21.0,88,29.44,0.8,WSW,8.1,-,0.03,Snow,Light Snow,240,2013-11-16 03:53:00
8:53 PM,25.0,21.0,85,29.41,0.8,SW,8.1,18.4,0.04,Snow,Light Snow,230,2013-11-16 04:53:00
9:53 PM,25.0,21.0,85,29.38,0.8,SW,9.2,-,0.05,Snow,Light Snow,220,2013-11-16 05:53:00
10:53 PM,25.0,21.0,85,29.35,0.8,Variable,3.5,-,0.04,Snow,Light Snow,0,2013-11-16 06:53:00
11:19 PM,24.8,21.2,86,29.25,0.8,Variable,3.5,-,0.02,Snow,Light Snow,0,2013-11-16 07:19:00
11:38 PM,24.8,21.2,86,29.24,1.0,Variable,4.6,-,0.03,Snow,Light Snow,0,2013-11-16 07:38:00
11:53 PM,25.0,21.0,85,29.31,1.2,Variable,6.9,-,0.04,Snow,Light Snow,0,2013-11-16 07:53:00